Weather History for KD60 - August, 2014

Change the Weather History Date:

Tuesday, August 12, 2014

  Actual Average (KISN) Record (KISN)
Temperature  
Mean Temperature 71 °F 70 °F  
Max Temperature 89 °F 85 °F 101 °F (2003)
Min Temperature 53 °F 55 °F 36 °F (1964)
Degree Days  
Heating Degree Days 0 1  
Month to date heating degree days 12  
Since 1 June heating degree days 156  
Since 1 July heating degree days 36  
Cooling Degree Days 6 6  
Month to date cooling degree days 82  
Year to date cooling degree days 345  
Since 1 June cooling degree days 332  
Growing Degree Days 21 (Base 50)    
Moisture  
Dew Point 56 °F    
Average Humidity 69    
Maximum Humidity 100    
Minimum Humidity 27    
Precipitation  
Precipitation 0.00 in 0.05 in 1.38 in (1947)
Month to date precipitation 0.58  
Year to date precipitation 10.25  
Sea Level Pressure  
Sea Level Pressure 30.11 in    
Wind  
Wind Speed 7 mph (ESE)    
Max Wind Speed 16 mph    
Max Gust Speed 23 mph    
Visibility 10 miles    
Events      
T = Trace of Precipitation, MM = Missing Value Source: NWS Daily Summary

Daily Weather History Graph

Daily Weather History Graph

Search for Another Location

Airport or City:

Trip Planner

Search our weather history database for the weather conditions in past years. The results will help you decide how hot, cold, wet, or windy it might be!

Date:

Astronomy

Aug. 12, 2014 Rise Set
Actual Time 6:41 AM CDT 9:10 PM CDT
Civil Twilight 6:06 AM CDT 9:45 PM CDT
Nautical Twilight 5:22 AM CDT 10:29 PM CDT
Astronomical Twilight 4:30 AM CDT 11:20 PM CDT
Moon 10:01 PM CDT (8/12) 9:16 AM CDT (8/12)
Length of Visible Light 15h 39m
Length of Day
14h 29m
Waning Gibbous, 94% of the Moon is Illuminated
Aug 12
Waning Gibbous
Aug 17
Last Quarter
Aug 25
New
Sep 2
First Quarter
Sep 8
Full

Hourly Weather History & Observations

Time (CDT) Temp. Heat Index Dew Point Humidity Pressure Visibility Wind Dir Wind Speed Gust Speed Precip Events Conditions
12:35 AM 55.4 °F - 55.4 °F 100% 30.18 in 10.0 mi East 3.5 mph - N/A   Scattered Clouds
12:55 AM 55.4 °F - 55.4 °F 100% 30.18 in 10.0 mi East 4.6 mph - N/A   Partly Cloudy
1:15 AM 55.4 °F - 55.4 °F 100% 30.18 in 10.0 mi East 3.5 mph - N/A   Clear
1:35 AM 55.4 °F - 55.4 °F 100% 30.18 in 10.0 mi East 3.5 mph - N/A   Partly Cloudy
1:55 AM 57.2 °F - 57.2 °F 100% 30.18 in 10.0 mi ENE 3.5 mph - N/A   Mostly Cloudy
2:15 AM 57.2 °F - 57.2 °F 100% 30.18 in 10.0 mi Calm Calm - N/A   Mostly Cloudy
2:35 AM 55.4 °F - 55.4 °F 100% 30.18 in 10.0 mi East 4.6 mph - N/A   Mostly Cloudy
2:55 AM 55.4 °F - 55.4 °F 100% 30.17 in 10.0 mi East 3.5 mph - N/A   Partly Cloudy
3:15 AM 55.4 °F - 55.4 °F 100% 30.17 in 10.0 mi East 4.6 mph - N/A   Clear
3:35 AM 53.6 °F - 53.6 °F 100% 30.17 in 10.0 mi NE 4.6 mph - N/A   Partly Cloudy
3:55 AM 55.4 °F - 55.4 °F 100% 30.17 in 10.0 mi ENE 3.5 mph - N/A   Mostly Cloudy
4:35 AM 57.2 °F - 57.2 °F 100% 30.17 in 10.0 mi ENE 3.5 mph - N/A   Overcast
4:55 AM 57.2 °F - 57.2 °F 100% 30.17 in 10.0 mi East 4.6 mph - N/A   Overcast
5:15 AM 55.4 °F - 55.4 °F 100% 30.16 in 10.0 mi East 3.5 mph - N/A   Overcast
5:35 AM 55.4 °F - 55.4 °F 100% 30.16 in 10.0 mi East 4.6 mph - N/A   Mostly Cloudy
5:55 AM 53.6 °F - 53.6 °F 100% 30.16 in 10.0 mi East 6.9 mph - N/A   Mostly Cloudy
6:15 AM 53.6 °F - 53.6 °F 100% 30.16 in 10.0 mi East 5.8 mph - N/A   Partly Cloudy
6:35 AM 53.6 °F - 53.6 °F 100% 30.15 in 9.0 mi East 5.8 mph - N/A   Scattered Clouds
6:55 AM 55.4 °F - 55.4 °F 100% 30.15 in 10.0 mi East 4.6 mph - N/A   Overcast
7:15 AM 55.4 °F - 55.4 °F 100% 30.16 in 10.0 mi Calm Calm - N/A   Overcast
7:35 AM 57.2 °F - 57.2 °F 100% 30.16 in 10.0 mi Calm Calm - N/A   Overcast
7:55 AM 59.0 °F - 59.0 °F 100% 30.15 in 10.0 mi East 4.6 mph - N/A   Overcast
8:15 AM 59.0 °F - 59.0 °F 100% 30.15 in 10.0 mi East 4.6 mph - N/A   Mostly Cloudy
8:35 AM 62.6 °F - 62.6 °F 100% 30.15 in 10.0 mi ENE 4.6 mph - N/A   Scattered Clouds
8:55 AM 64.4 °F - 64.4 °F 100% 30.14 in 10.0 mi ESE 5.8 mph - N/A   Clear
9:15 AM 69.8 °F - 62.6 °F 78% 30.14 in 10.0 mi SE 8.1 mph - N/A   Clear
9:35 AM 71.6 °F - 60.8 °F 69% 30.13 in 10.0 mi ESE 9.2 mph - N/A   Clear
9:55 AM 73.4 °F - 57.2 °F 57% 30.13 in 10.0 mi SE 9.2 mph - N/A   Clear
10:15 AM 75.2 °F - 57.2 °F 53% 30.13 in 10.0 mi SE 8.1 mph - N/A   Clear
10:35 AM 77.0 °F - 55.4 °F 47% 30.13 in 10.0 mi SSE 9.2 mph - N/A   Clear
10:55 AM 80.6 °F 80.3 °F 53.6 °F 39% 30.12 in 10.0 mi SE 10.4 mph - N/A   Clear
12:35 PM 84.2 °F 82.8 °F 53.6 °F 35% 30.10 in 10.0 mi SSE 11.5 mph 21.9 mph N/A   Clear
12:55 PM 86.0 °F - 51.8 °F 31% 30.10 in 10.0 mi SSE 12.7 mph 18.4 mph N/A   Clear
1:15 PM 86.0 °F - 50.0 °F 29% 30.09 in 10.0 mi South 13.8 mph 18.4 mph N/A   Clear
1:35 PM 86.0 °F - 48.2 °F 27% 30.09 in 10.0 mi South 13.8 mph - N/A   Clear
1:55 PM 86.0 °F - 48.2 °F 27% 30.08 in 10.0 mi South 12.7 mph - N/A   Clear
2:15 PM 86.0 °F - 48.2 °F 27% 30.08 in 10.0 mi South 11.5 mph 19.6 mph N/A   Clear
2:35 PM 87.8 °F - 50.0 °F 27% 30.07 in 10.0 mi South 12.7 mph 17.3 mph N/A   Clear
2:55 PM 86.0 °F 84.2 °F 53.6 °F 33% 30.07 in 10.0 mi SSE 12.7 mph 18.4 mph N/A   Clear
3:55 PM 89.6 °F 87.3 °F 53.6 °F 29% 30.06 in 10.0 mi SSE 13.8 mph 18.4 mph N/A   Clear
4:15 PM 89.6 °F 87.3 °F 53.6 °F 29% 30.05 in 10.0 mi SE 10.4 mph 17.3 mph N/A   Clear
4:35 PM 87.8 °F 85.7 °F 53.6 °F 31% 30.05 in 10.0 mi SE 13.8 mph 19.6 mph N/A   Clear
4:55 PM 87.8 °F 85.7 °F 53.6 °F 31% 30.05 in 10.0 mi SE 16.1 mph 19.6 mph N/A   Partly Cloudy
5:15 PM 87.8 °F 85.7 °F 53.6 °F 31% 30.04 in 10.0 mi SE 16.1 mph 21.9 mph N/A   Clear
5:35 PM 86.0 °F 84.2 °F 53.6 °F 33% 30.04 in 10.0 mi ESE 15.0 mph 23.0 mph N/A   Clear
5:55 PM 86.0 °F 84.2 °F 53.6 °F 33% 30.04 in 10.0 mi SE 16.1 mph 23.0 mph N/A   Clear
6:15 PM 86.0 °F 84.2 °F 53.6 °F 33% 30.03 in 10.0 mi SE 16.1 mph 20.7 mph N/A   Clear
6:55 PM 86.0 °F 84.2 °F 53.6 °F 33% 30.02 in 10.0 mi SE 13.8 mph 19.6 mph N/A   Clear
7:15 PM 84.2 °F 82.8 °F 53.6 °F 35% 30.02 in 10.0 mi ESE 13.8 mph 18.4 mph N/A   Clear
7:35 PM 82.4 °F 81.7 °F 55.4 °F 39% 30.02 in 10.0 mi ESE 11.5 mph - N/A   Clear
7:55 PM 82.4 °F 81.7 °F 55.4 °F 39% 30.02 in 10.0 mi ESE 11.5 mph 18.4 mph N/A   Clear
8:15 PM 78.8 °F - 57.2 °F 47% 30.02 in 10.0 mi ESE 11.5 mph 19.6 mph N/A   Clear
8:35 PM 77.0 °F - 57.2 °F 50% 30.02 in 10.0 mi East 9.2 mph - N/A   Clear
8:55 PM 75.2 °F - 59.0 °F 57% 30.02 in 10.0 mi East 8.1 mph - N/A   Clear
9:15 PM 71.6 °F - 60.8 °F 69% 30.03 in 10.0 mi East 8.1 mph - N/A   Clear
9:55 PM 68.0 °F - 62.6 °F 83% 30.05 in 10.0 mi East 8.1 mph - N/A   Partly Cloudy
10:15 PM 66.2 °F - 64.4 °F 94% 30.05 in 10.0 mi East 8.1 mph - N/A   Partly Cloudy
10:35 PM 66.2 °F - 64.4 °F 94% 30.06 in 10.0 mi East 6.9 mph - N/A   Clear
10:55 PM 66.2 °F - 62.6 °F 88% 30.06 in 10.0 mi East 9.2 mph - N/A   Clear
11:15 PM 66.2 °F - 62.6 °F 88% 30.07 in 10.0 mi East 9.2 mph - N/A   Clear
11:55 PM 66.2 °F - 62.6 °F 88% 30.07 in 10.0 mi East 8.1 mph - N/A   Mostly Cloudy